SCP
0 0 0 0 0 0 0 0 0 0 0 0 0 0 0 0 0 0 0 0 0 0 0 0 0 0 0 0 0 0 0 0 0 0 0 0 0 0 0 0 0 0 0
0 0 0 0 0 0 0 0 0 0 0 0 0 0 0 0 0 0 0 0 0 0 0 0 0 0 0 0 0 0 0 0 0 0 0 0 0 0 0 0 0 0 0
0 0 0 0 0 0 0 0 0 0 0 0 0 0 0 0 0 0 0 0 0 0 0 0 0 0 0 0 0 0 0 0 0 0 0 0 0 0 0 0 0 0 0
0 0 0 0 0 0 0 0 0 0 0 0 0 0 0 0 0 0 0 0 0 0 0 0 0 0 0 0 0 0 0 0 0 0 0 0 0 0 0 0 0 0 0
0 0 0 0 0 0 0 0 0 0 0 0 0 0 0 0 0 0 0 0 0 0 0 0 0 0 0 0 0 0 0 0 0 0 0 0 0 0 0 0 0 0 0
0 0 0 0 0 0 0 0 0 0 0 0 0 0 0 0 0 0 0 0 0 0 0 0 0 0 0 0 0 0 0 0 0 0 0 0 0 0 0 0 0 0 -0
0 0 0 0 0 0 0 0 0 0 0 0 0 0 0 0 0 0 0 0 0 0 0 0 0 0 0 0 0 0 0 0 0 0 0 0 0 0 0 0 0 0 0
0 0 0 0 0 0 0 0 0 0 0 0 0 0 0 0 0 0 0 0 0 0 0 0 0 0 0 0 0 0 0 0 0 0 0 0 0 0 0 0 0 0 0
0 0 0 0 0 0 0 0 0 0 0 0 0 0 0 0 0 0 0 0 0 0 0 0 0 0 0 0 0 0 0 0 0 0 0 0 0 0 0 0 0 0 0
0 0 0 0 0 0 0 0 0 0 0 0 0 0 0 0 0 0 0 0 0 0 0 0 0 0 0 0 0 0 0 0 0 0 0 0 0 0 0 0 0 0 0
0 0 0 0 0 0 0 0 0 0 0 0 0 0 0 0 0 0 0 0 0 0 0 0 0 0 0 0 0 0 0 0 0 0 0 0 0 0 0 0 0 0 0
0 0 0 0 0 0 0 0 0 0 0 0 0 0 0 0 0 0 0 0 0 0 0 0 0 0 0 0 0 0 0 0 0 0 0 0 0 0 0 0 0 0 0
0 0 0 0 0 0 0 0 0 0 0 0 0 0 0 0 0 0 0 0 0 0 0 0 0 0 0 0 0 0 0 0 0 0 0 0 0 0 0 0 0 0 0
0 0 0 0 0 0 0 0 0 0 0 0 0 0 0 0 0 0 0 0 0 0 0 0 0 0 0 0 0 0 0 0 0 0 0 0 0 0 0 0 0 0 0
0 0 0 0 0 0 0 0 0 0 0 0 0 0 0 0 0 0 0 0 0 0 0 0 0 0 0 0 0 0 0 0 0 0 0 0 0 0 0 0 0 0 0
0 0 0 0 0 0 0 0 0 0 0 0 0 0 0 0 0 0 0 0 0 0 0 0 0 0 0 0 0 0 0 0 0 0 0 0 0 0 0 0 0 0 0
0 0 0 0 0 0 0 0 0 0 0 0 0 0 0 0 0 0 0 0 0 0 0 0 0 0 0 0 0 0 0 0 0 0 0 0 0 0 0 0 0 0 0
0 0 0 0 0 0 0 0 0 0 0 0 0 0 0 0 0 0 0 0 0 0 0 0 0 0 0 0 0 0 0 0 0 0 0 0 0 0 0 0 0 0 0
0 0 0 0 0 0 0 0 0 0 0 0 0 0 0 0 0 0 0 0 0 0 0 0 0 0 0 0 0 0 0 0 0 0 0 0 0 0 0 0 0 0 0
0 0 0 0 0 0 0 0 0 0 0 0 0 0 0 0 0 0 0 0 0 0 0 0 0 0 0 0 0 0 0 0 0 0 0 0 0 0 0 0 0 0 0
0 0 0 0 0 0 0 0 0 0 0 0 0 0 0 0 0 0 0 0 0 0 0 0 0 0 0 0 0 0 0 0 0 0 0 0 0 0 0 0 0 0 0
0 0 0 0 0 0 0 0 0 0 0 0 0 0 0 0 0 0 0 0 0 0 0 0 0 0 0 0 0 0 0 0 0 0 0 0 0 0 0 0 0 0 0
0 0 0 0 0 0 0 0 0 0 0 0 0 0 0 0 0 0 0 0 0 0 0 0 0 0 0 0 0 0 0 0 0 0 0 0 0 0 0 0 0 0 0
0 0 0 0 0 0 0 0 0 0 0 0 0 0 0 0 0 0 0 0 0 0 0 0 0 0 0 0 0 0 0 0 0 0 0 0 0 0 0 0 0 0 0
0 0 0 0 0 0 0 0 0 0 0 0 0 0 0 0 0 0 0 0 0 0 0 0 0 0 0 0 0 0 0 0 0 0 0 0 0 0 0 0 0 0 0
0 0 0 0 0 0 0 0 0 0 0 0 0 0 0 0 0 0 0 0 0 0 0 0 0 0 0 0 0 0 0 0 0 0 0 0 0 0 0 0 0 0 0
Wind_Speed_500mb
33 34 37 40 42 43 42 39 37 36 36 38 37 33 34 37 44 48 41 47 46 45 47 41 38 33 29 27 27 27 25 24 24 28 28 27 29 29 29 30 31 33 36
30 31 32 34 33 33 33 33 33 33 34 32 30 35 39 42 43 42 43 46 46 43 38 36 33 29 27 25 24 22 22 20 19 20 21 22 24 26 29 31 35 38 40
26 29 30 32 32 32 33 34 35 36 37 38 40 43 45 45 45 45 48 46 41 38 36 35 32 29 26 23 21 21 21 19 19 18 20 22 25 29 31 33 35 36 41
30 32 32 33 32 32 33 35 36 38 41 43 43 45 47 48 49 48 45 43 42 40 38 36 32 28 25 24 22 19 18 17 17 17 19 24 28 31 35 40 39 40 43
37 39 38 36 35 35 37 39 41 43 45 46 47 46 48 49 49 47 45 44 42 40 37 34 31 29 26 21 18 18 17 17 18 19 20 22 27 33 38 42 48 50 48
47 51 48 47 46 44 44 46 47 50 53 53 52 50 50 50 50 48 45 43 42 39 36 34 30 27 23 22 21 20 18 18 18 20 23 24 26 29 34 41 48 57 57
63 61 58 55 54 52 51 54 56 56 55 54 52 52 52 50 49 47 45 43 42 40 38 34 29 26 24 21 20 19 19 20 21 21 21 23 25 29 33 38 43 48 54
64 66 65 66 64 64 64 63 61 59 57 55 53 53 54 54 52 50 48 47 46 43 38 34 32 31 27 22 20 19 17 18 18 19 19 21 26 30 32 38 44 47 45
67 68 72 77 76 74 72 69 67 63 61 60 58 58 58 57 55 54 53 53 49 46 42 39 37 33 26 23 22 19 18 17 16 18 19 20 25 31 34 36 39 46 51
59 62 67 74 79 81 79 74 69 66 64 64 63 62 60 59 57 56 56 54 52 49 44 40 38 33 27 25 23 20 18 15 14 15 16 18 21 26 31 34 37 39 44
59 61 63 67 74 79 79 75 72 71 70 70 69 67 66 63 59 58 58 57 53 49 46 43 38 33 28 24 22 19 16 14 14 15 15 18 20 24 27 30 34 35 37
50 54 59 60 64 73 78 77 76 75 74 75 73 71 68 65 62 58 57 54 50 48 45 41 37 30 30 25 22 20 19 16 15 15 17 17 20 22 24 26 30 31 31
54 54 53 55 58 67 74 79 79 80 80 81 79 77 73 68 63 60 53 53 53 48 44 40 31 30 34 29 24 20 17 16 18 18 18 19 21 23 24 24 28 31 26
53 51 53 54 57 62 71 77 81 85 86 84 84 82 77 72 68 62 59 55 55 50 48 38 40 39 32 28 24 21 20 20 19 18 19 20 21 21 24 27 30 35 37
52 51 50 54 58 60 69 76 82 84 83 84 84 81 79 78 71 64 64 61 54 50 48 42 43 39 35 30 27 25 24 22 19 19 20 20 21 22 24 28 33 38 41
52 48 50 51 57 62 68 72 76 79 74 79 78 75 73 65 66 70 62 57 52 48 40 46 43 40 36 33 30 28 26 23 20 19 18 19 21 25 27 29 34 39 45
49 46 48 53 54 61 67 72 77 71 69 72 74 72 68 62 65 63 59 53 46 44 47 44 42 39 35 34 31 29 27 24 20 16 17 20 23 26 29 31 35 41 45
45 46 47 50 52 57 66 69 72 70 68 62 58 59 63 64 61 58 56 42 47 48 48 46 42 40 37 34 33 30 29 23 19 17 18 21 25 27 30 34 38 43 48
44 44 47 48 50 54 62 66 65 64 63 62 59 57 59 57 58 60 54 50 52 49 46 46 43 41 39 36 33 30 27 24 22 20 21 22 24 29 31 36 40 43 48
47 47 47 48 50 55 59 62 65 68 70 67 68 63 61 63 66 65 60 58 61 53 48 44 43 43 39 35 32 29 28 27 26 23 23 24 27 31 34 38 42 46 48
50 49 49 52 55 56 59 62 63 66 69 71 72 66 60 62 70 64 61 56 51 45 46 45 44 41 37 35 32 30 29 29 28 27 27 27 31 33 36 41 45 47 49
52 51 52 54 54 56 58 60 62 64 67 70 69 62 57 55 57 52 50 50 50 47 48 47 43 39 38 36 34 33 32 29 29 31 32 31 34 36 40 42 46 48 49
53 52 53 53 53 53 55 56 57 60 63 63 62 57 59 63 66 58 51 52 50 49 47 46 42 41 39 38 37 35 32 29 33 37 35 34 35 38 43 45 47 47 48
50 50 52 51 52 53 55 55 56 57 57 57 57 63 66 64 52 48 50 51 50 48 47 46 42 40 40 40 38 36 34 34 37 38 38 38 39 43 45 46 45 44 47
48 49 51 51 52 53 53 54 54 55 53 51 52 55 57 51 48 51 49 49 49 49 47 45 42 41 41 39 38 36 36 38 38 39 41 42 44 47 47 47 45 45 45
47 49 50 51 52 52 50 49 50 52 52 51 51 49 47 52 53 51 49 49 48 47 45 44 43 43 41 39 39 40 41 41 41 43 46 47 48 49 49 48 46 47 47
Wind_Direction_500mb
215 222 231 235 237 241 243 244 244 241 239 236 238 235 238 243 243 254 248 247 248 254 259 245 247 247 246 250 252 255 256 253 248 250 259 267 278 289 293 299 308 316 320
224 229 235 239 236 240 240 238 238 238 236 235 228 230 233 242 243 238 243 246 247 246 241 238 238 238 243 250 255 259 261 262 261 261 268 274 284 295 306 315 319 324 324
241 238 234 240 241 238 237 238 237 235 230 228 228 233 234 236 240 244 243 242 236 231 228 226 228 231 235 240 247 256 264 270 274 277 287 296 304 309 311 316 320 326 327
252 248 247 245 244 244 243 242 240 237 234 234 233 236 236 237 239 238 235 230 225 222 222 223 225 229 231 235 242 255 267 273 279 287 297 303 308 311 316 318 318 330 333
264 259 256 254 253 253 249 242 239 239 240 238 238 238 237 237 236 232 224 219 217 219 221 221 222 227 233 239 250 258 265 277 287 293 298 307 311 317 324 329 330 332 339
283 278 264 257 253 249 248 244 238 236 236 235 234 235 236 235 231 222 217 216 217 218 219 221 226 233 241 249 255 257 264 278 288 300 306 311 315 323 330 334 335 339 345
285 275 265 262 257 256 252 248 243 237 235 233 232 231 229 226 224 223 223 220 217 217 220 223 228 236 240 243 250 256 261 271 279 287 295 306 316 327 333 334 335 336 337
272 266 260 257 257 253 249 245 241 238 234 232 230 226 224 222 222 224 223 218 217 218 220 223 231 233 233 242 246 251 261 270 278 287 298 311 322 329 334 333 330 329 330
270 267 259 252 250 250 248 246 242 236 232 230 227 224 222 222 222 221 221 218 216 216 220 221 221 226 231 240 246 251 252 257 271 286 300 321 326 327 327 325 323 325 330
282 277 269 260 255 251 247 244 240 235 233 230 226 224 224 223 223 222 220 219 218 221 219 218 221 225 235 232 241 240 240 247 265 288 308 319 323 318 318 321 324 331 336
286 275 268 264 257 252 247 242 238 233 229 227 225 224 223 222 222 222 219 220 223 220 217 217 220 232 236 238 238 238 243 256 268 280 294 305 307 308 315 320 323 332 337
288 283 275 266 259 250 243 239 234 231 228 226 223 222 221 221 221 223 226 225 221 221 219 220 222 233 239 244 243 242 251 261 265 271 282 292 299 306 313 319 322 329 334
288 282 277 270 261 252 242 236 231 229 227 226 223 222 221 219 219 220 221 218 217 220 216 217 220 235 239 235 235 234 247 251 255 269 284 294 301 311 316 319 319 321 326
289 285 279 268 258 248 240 234 232 230 227 226 225 224 222 220 219 221 220 214 213 214 216 216 232 229 223 223 228 235 242 249 261 275 287 296 303 312 315 319 320 320 324
292 285 277 268 260 249 241 237 233 233 234 234 232 230 227 224 223 228 224 213 215 217 225 223 221 219 217 219 226 233 241 250 262 274 282 292 307 314 317 318 319 323 327
293 286 278 269 260 250 241 234 231 233 232 232 232 234 231 229 234 227 216 218 223 219 215 217 217 216 217 221 226 232 241 249 256 264 280 300 310 311 315 321 324 325 325
290 283 278 270 259 251 242 233 230 229 226 231 232 231 230 233 224 220 225 221 218 216 216 218 219 220 221 224 229 236 241 244 250 268 286 296 302 307 318 323 323 324 322
286 281 277 269 263 253 243 236 233 228 223 220 223 227 226 220 217 224 218 203 203 216 212 218 222 224 224 227 230 234 237 241 250 263 279 289 301 311 315 319 323 321 320
283 277 274 271 263 255 248 240 237 233 228 227 222 219 220 220 223 216 213 213 218 221 213 217 221 226 228 228 230 232 239 246 251 261 271 284 297 304 311 316 317 318 319
282 278 273 267 260 253 246 243 238 234 232 228 225 224 220 206 202 208 207 212 219 219 219 222 225 226 229 232 233 235 240 247 254 261 270 283 290 298 307 310 313 315 318
276 272 268 264 258 254 250 244 240 239 236 229 226 227 225 215 208 210 213 218 224 222 225 226 227 231 233 234 237 240 245 251 257 263 269 276 285 293 302 308 312 314 314
272 268 264 261 259 255 251 247 245 240 236 235 233 224 219 218 218 217 218 224 227 228 230 231 231 233 235 238 240 244 247 251 257 261 266 274 282 293 300 305 308 311 313
268 265 261 259 256 253 250 246 242 240 239 235 228 222 220 219 217 217 223 228 229 230 233 235 234 233 237 241 245 248 251 253 256 261 268 274 284 292 297 303 306 310 310
266 262 260 257 254 251 248 246 244 238 231 226 221 218 223 229 225 225 225 229 231 234 235 235 235 237 240 244 248 250 252 254 258 265 273 279 285 289 294 300 304 306 306
264 259 257 256 254 252 248 244 239 237 235 231 231 231 230 229 232 232 230 231 234 235 237 238 240 242 244 247 251 253 255 258 263 269 274 279 284 288 294 299 302 302 303
262 258 256 255 254 251 245 242 241 240 238 236 233 230 232 234 236 236 235 235 236 237 237 241 243 244 246 249 252 255 258 263 268 272 274 279 284 289 293 297 298 300 302
Wind_Speed_850mb
33 34 37 40 42 43 42 39 37 36 36 38 37 33 34 37 44 48 41 47 46 45 47 41 38 33 29 27 27 27 25 24 24 28 28 27 29 29 29 30 31 33 36
30 31 32 34 33 33 33 33 33 33 34 32 30 35 39 42 43 42 43 46 46 43 38 36 33 29 27 25 24 22 22 20 19 20 21 22 24 26 29 31 35 38 40
26 29 30 32 32 32 33 34 35 36 37 38 40 43 45 45 45 45 48 46 41 38 36 35 32 29 26 23 21 21 21 19 19 18 20 22 25 29 31 33 35 36 41
30 32 32 33 32 32 33 35 36 38 41 43 43 45 47 48 49 48 45 43 42 40 38 36 32 28 25 24 22 19 18 17 17 17 19 24 28 31 35 40 39 40 43
37 39 38 36 35 35 37 39 41 43 45 46 47 46 48 49 49 47 45 44 42 40 37 34 31 29 26 21 18 18 17 17 18 19 20 22 27 33 38 42 48 50 48
47 51 48 47 46 44 44 46 47 50 53 53 52 50 50 50 50 48 45 43 42 39 36 34 30 27 23 22 21 20 18 18 18 20 23 24 26 29 34 41 48 57 57
63 61 58 55 54 52 51 54 56 56 55 54 52 52 52 50 49 47 45 43 42 40 38 34 29 26 24 21 20 19 19 20 21 21 21 23 25 29 33 38 43 48 54
64 66 65 66 64 64 64 63 61 59 57 55 53 53 54 54 52 50 48 47 46 43 38 34 32 31 27 22 20 19 17 18 18 19 19 21 26 30 32 38 44 47 45
67 68 72 77 76 74 72 69 67 63 61 60 58 58 58 57 55 54 53 53 49 46 42 39 37 33 26 23 22 19 18 17 16 18 19 20 25 31 34 36 39 46 51
59 62 67 74 79 81 79 74 69 66 64 64 63 62 60 59 57 56 56 54 52 49 44 40 38 33 27 25 23 20 18 15 14 15 16 18 21 26 31 34 37 39 44
59 61 63 67 74 79 79 75 72 71 70 70 69 67 66 63 59 58 58 57 53 49 46 43 38 33 28 24 22 19 16 14 14 15 15 18 20 24 27 30 34 35 37
50 54 59 60 64 73 78 77 76 75 74 75 73 71 68 65 62 58 57 54 50 48 45 41 37 30 30 25 22 20 19 16 15 15 17 17 20 22 24 26 30 31 31
54 54 53 55 58 67 74 79 79 80 80 81 79 77 73 68 63 60 53 53 53 48 44 40 31 30 34 29 24 20 17 16 18 18 18 19 21 23 24 24 28 31 26
53 51 53 54 57 62 71 77 81 85 86 84 84 82 77 72 68 62 59 55 55 50 48 38 40 39 32 28 24 21 20 20 19 18 19 20 21 21 24 27 30 35 37
52 51 50 54 58 60 69 76 82 84 83 84 84 81 79 78 71 64 64 61 54 50 48 42 43 39 35 30 27 25 24 22 19 19 20 20 21 22 24 28 33 38 41
52 48 50 51 57 62 68 72 76 79 74 79 78 75 73 65 66 70 62 57 52 48 40 46 43 40 36 33 30 28 26 23 20 19 18 19 21 25 27 29 34 39 45
49 46 48 53 54 61 67 72 77 71 69 72 74 72 68 62 65 63 59 53 46 44 47 44 42 39 35 34 31 29 27 24 20 16 17 20 23 26 29 31 35 41 45
45 46 47 50 52 57 66 69 72 70 68 62 58 59 63 64 61 58 56 42 47 48 48 46 42 40 37 34 33 30 29 23 19 17 18 21 25 27 30 34 38 43 48
44 44 47 48 50 54 62 66 65 64 63 62 59 57 59 57 58 60 54 50 52 49 46 46 43 41 39 36 33 30 27 24 22 20 21 22 24 29 31 36 40 43 48
47 47 47 48 50 55 59 62 65 68 70 67 68 63 61 63 66 65 60 58 61 53 48 44 43 43 39 35 32 29 28 27 26 23 23 24 27 31 34 38 42 46 48
50 49 49 52 55 56 59 62 63 66 69 71 72 66 60 62 70 64 61 56 51 45 46 45 44 41 37 35 32 30 29 29 28 27 27 27 31 33 36 41 45 47 49
52 51 52 54 54 56 58 60 62 64 67 70 69 62 57 55 57 52 50 50 50 47 48 47 43 39 38 36 34 33 32 29 29 31 32 31 34 36 40 42 46 48 49
53 52 53 53 53 53 55 56 57 60 63 63 62 57 59 63 66 58 51 52 50 49 47 46 42 41 39 38 37 35 32 29 33 37 35 34 35 38 43 45 47 47 48
50 50 52 51 52 53 55 55 56 57 57 57 57 63 66 64 52 48 50 51 50 48 47 46 42 40 40 40 38 36 34 34 37 38 38 38 39 43 45 46 45 44 47
48 49 51 51 52 53 53 54 54 55 53 51 52 55 57 51 48 51 49 49 49 49 47 45 42 41 41 39 38 36 36 38 38 39 41 42 44 47 47 47 45 45 45
47 49 50 51 52 52 50 49 50 52 52 51 51 49 47 52 53 51 49 49 48 47 45 44 43 43 41 39 39 40 41 41 41 43 46 47 48 49 49 48 46 47 47
Wind_Direction_850mb
215 222 231 235 237 241 243 244 244 241 239 236 238 235 238 243 243 254 248 247 248 254 259 245 247 247 246 250 252 255 256 253 248 250 259 267 278 289 293 299 308 316 320
224 229 235 239 236 240 240 238 238 238 236 235 228 230 233 242 243 238 243 246 247 246 241 238 238 238 243 250 255 259 261 262 261 261 268 274 284 295 306 315 319 324 324
241 238 234 240 241 238 237 238 237 235 230 228 228 233 234 236 240 244 243 242 236 231 228 226 228 231 235 240 247 256 264 270 274 277 287 296 304 309 311 316 320 326 327
252 248 247 245 244 244 243 242 240 237 234 234 233 236 236 237 239 238 235 230 225 222 222 223 225 229 231 235 242 255 267 273 279 287 297 303 308 311 316 318 318 330 333
264 259 256 254 253 253 249 242 239 239 240 238 238 238 237 237 236 232 224 219 217 219 221 221 222 227 233 239 250 258 265 277 287 293 298 307 311 317 324 329 330 332 339
283 278 264 257 253 249 248 244 238 236 236 235 234 235 236 235 231 222 217 216 217 218 219 221 226 233 241 249 255 257 264 278 288 300 306 311 315 323 330 334 335 339 345
285 275 265 262 257 256 252 248 243 237 235 233 232 231 229 226 224 223 223 220 217 217 220 223 228 236 240 243 250 256 261 271 279 287 295 306 316 327 333 334 335 336 337
272 266 260 257 257 253 249 245 241 238 234 232 230 226 224 222 222 224 223 218 217 218 220 223 231 233 233 242 246 251 261 270 278 287 298 311 322 329 334 333 330 329 330
270 267 259 252 250 250 248 246 242 236 232 230 227 224 222 222 222 221 221 218 216 216 220 221 221 226 231 240 246 251 252 257 271 286 300 321 326 327 327 325 323 325 330
282 277 269 260 255 251 247 244 240 235 233 230 226 224 224 223 223 222 220 219 218 221 219 218 221 225 235 232 241 240 240 247 265 288 308 319 323 318 318 321 324 331 336
286 275 268 264 257 252 247 242 238 233 229 227 225 224 223 222 222 222 219 220 223 220 217 217 220 232 236 238 238 238 243 256 268 280 294 305 307 308 315 320 323 332 337
288 283 275 266 259 250 243 239 234 231 228 226 223 222 221 221 221 223 226 225 221 221 219 220 222 233 239 244 243 242 251 261 265 271 282 292 299 306 313 319 322 329 334
288 282 277 270 261 252 242 236 231 229 227 226 223 222 221 219 219 220 221 218 217 220 216 217 220 235 239 235 235 234 247 251 255 269 284 294 301 311 316 319 319 321 326
289 285 279 268 258 248 240 234 232 230 227 226 225 224 222 220 219 221 220 214 213 214 216 216 232 229 223 223 228 235 242 249 261 275 287 296 303 312 315 319 320 320 324
292 285 277 268 260 249 241 237 233 233 234 234 232 230 227 224 223 228 224 213 215 217 225 223 221 219 217 219 226 233 241 250 262 274 282 292 307 314 317 318 319 323 327
293 286 278 269 260 250 241 234 231 233 232 232 232 234 231 229 234 227 216 218 223 219 215 217 217 216 217 221 226 232 241 249 256 264 280 300 310 311 315 321 324 325 325
290 283 278 270 259 251 242 233 230 229 226 231 232 231 230 233 224 220 225 221 218 216 216 218 219 220 221 224 229 236 241 244 250 268 286 296 302 307 318 323 323 324 322
286 281 277 269 263 253 243 236 233 228 223 220 223 227 226 220 217 224 218 203 203 216 212 218 222 224 224 227 230 234 237 241 250 263 279 289 301 311 315 319 323 321 320
283 277 274 271 263 255 248 240 237 233 228 227 222 219 220 220 223 216 213 213 218 221 213 217 221 226 228 228 230 232 239 246 251 261 271 284 297 304 311 316 317 318 319
282 278 273 267 260 253 246 243 238 234 232 228 225 224 220 206 202 208 207 212 219 219 219 222 225 226 229 232 233 235 240 247 254 261 270 283 290 298 307 310 313 315 318
276 272 268 264 258 254 250 244 240 239 236 229 226 227 225 215 208 210 213 218 224 222 225 226 227 231 233 234 237 240 245 251 257 263 269 276 285 293 302 308 312 314 314
272 268 264 261 259 255 251 247 245 240 236 235 233 224 219 218 218 217 218 224 227 228 230 231 231 233 235 238 240 244 247 251 257 261 266 274 282 293 300 305 308 311 313
268 265 261 259 256 253 250 246 242 240 239 235 228 222 220 219 217 217 223 228 229 230 233 235 234 233 237 241 245 248 251 253 256 261 268 274 284 292 297 303 306 310 310
266 262 260 257 254 251 248 246 244 238 231 226 221 218 223 229 225 225 225 229 231 234 235 235 235 237 240 244 248 250 252 254 258 265 273 279 285 289 294 300 304 306 306
264 259 257 256 254 252 248 244 239 237 235 231 231 231 230 229 232 232 230 231 234 235 237 238 240 242 244 247 251 253 255 258 263 269 274 279 284 288 294 299 302 302 303
262 258 256 255 254 251 245 242 241 240 238 236 233 230 232 234 236 236 235 235 236 237 237 241 243 244 246 249 252 255 258 263 268 272 274 279 284 289 293 297 298 300 302